Regional Weather Roundup
Issued by NWS New Orleans/Baton Rouge, LA

Home | Current Version | Previous Version | Text Only | Print | Product List | Glossary On
Versions: 1 2 3 4 5 6 7 8 9 10 11 12 13 14 15 16 17 18 19 20 21 22 23 24 25 26 27 28 29 30 31 32 33 34 35 36 37 38 39 40 41 42 43 44 45 46 47 48 49 50
000
ASUS44 KLIX 061910
RWRLIX
NEW ORLEANS REGIONAL WEATHER ROUNDUP
NATIONAL WEATHER SERVICE NEW ORLEANS LA
100 PM CST SAT FEB 06 2016

NOTE: "FAIR" INDICATES FEW OR NO CLOUDS BELOW 12,000 FEET WITH NO
      SIGNIFICANT WEATHER AND/OR OBSTRUCTIONS TO VISIBILITY.
      SKY/WX - SKY CONDITION AND SIGNIFICANT WEATHER.
      TMP - AIR TEMPERATURE.     DP    - DEWPOINT TEMPERATURE.
      RH  - RELATIVE HUMIDITY.   PRES  - PRESSURE.
      HI  - HEAT INDEX.          WCI   - WIND CHILL INDEX.

*  THESE STATIONS ARE NOT NWS OR FAA STATIONS AND ARE NOT UNDER
   NWS QUALITY CONTROL.

LAZ038-040-048-061>063-065>067-069-062000-
SOUTHEAST LOUISIANA

CITY           SKY/WX    TMP DP  RH WIND       PRES   REMARKS
N.O. AUDUBON   NOT AVBL
N.O. INTL ARPT MOSUNNY   56  25  30 NE12      30.29F
N.O. LAKEFRONT SUNNY     54  26  34 N8        30.30F
N.O. DOWNTOWN*   N/A     55  23  28 MISG      30.29F
RESERVE*         N/A     58  21  24 SE5       30.30F
SLIDELL        SUNNY     58  22  24 MISG      30.28F
BATON ROUGE    MOSUNNY   56  19  23 CALM      30.29F
BOOTHVILLE     SUNNY     56  35  45 N8        30.28F
BELLE CHASSE   CLOUDY    56  26  31 NE8       30.29F
BOGALUSA*        N/A     59  21  23 N3        30.29F
GALLIANO*      PTCLDY    55  30  39 NE6       30.29F
NEW ROADS*       N/A     55  26  32 E3        30.29F
GONZALES*        N/A     56  25  30 E5        30.28F
HAMMOND*       SUNNY     59  14  17 CALM      30.28F
HOUMA*         NOT AVBL
PORT FOURCHON* CLEAR     54  36  50 NE12      30.30R

$$

MSZ070-080>082-062000-
SOUTHERN MISSISSIPPI

CITY           SKY/WX    TMP DP  RH WIND       PRES   REMARKS
MCCOMB         CLOUDY    54  21  27 SE3       30.27F
GULFPORT       MOSUNNY   56  20  24 E3        30.27F
BILOXI         CLOUDY    57  21  25 N1        30.26F
PASCAGOULA     SUNNY     58  20  22 N8        30.25F
STENNIS ARPT*  SUNNY     55   9  15 NE7       30.29F

$$

COASTAL OBSERVATIONS
LAKE AND NEARSHORE STATIONS

STATION/POSITION TIME  TEMP    WIND        PRES    WAVE
                       AIR SEA DIR/SP/G            HT/PER
                 (UTC) (F)     (DEG/KT/KT) (MB)    (FT/S)
PASCAGOULA       1800   55     360/  6/ 11 1025.8
WAVELAND YACHT   1800   50 53  150/  7/  9 1026.6
GRAND ISLE       1800   54 54   70/  9/ 12 1026.1
NEW CANAL        1800   50 53   50/ 10/ 11 1025.9
SHELL BEACH      1800   51 55   40/ 11/ 12 1025.7

OFFSHORE STATIONS

STATION/POSITION TIME  TEMP    WIND        PRES    WAVE
                       AIR SEA DIR/SP/G            HT/PER
                 (UTC) (F)     (DEG/KT/KT) (MB)    (FT/S)

$$




USA.gov is the U.S. government's official web portal to all federal, state and local government web resources and services.